Regional Weather Roundup
Issued by NWS Green Bay, WI

Home | Current Version | Previous Version | Graphics & Text | Print | Product List | Glossary Off
Versions: 1 2 3 4 5 6 7 8 9 10 11 12 13 14 15 16 17 18 19 20 21 22 23 24 25 26 27 28 29 30 31 32 33 34 35 36 37 38 39 40 41 42 43 44 45 46 47 48 49 50

000
ASUS43 KGRB 011400
RWRGRB

NORTH-CENTRAL AND NORTHEAST WISCONSIN REGIONAL WEATHER ROUNDUP
NATIONAL WEATHER SERVICE GREEN BAY WI
900 AM CDT WED JUL 01 2015

WIZ005-009-010>012-018-019-011500-
NORTH CENTRAL WISCONSIN

CITY           SKY/WX    TMP DP  RH WIND       PRES   REMARKS
IRONWOOD       SUNNY     55  48  76 CALM      30.01S
MANITOWISH WTR NOT AVBL
ARBOR VITAE    NOT AVBL
EAGLE RIVER    NOT AVBL
LAND O LAKES   NOT AVBL
RHINELANDER    SUNNY     55  43  63 NE9       30.03S
PHILLIPS       PTSUNNY   54  46  73 N3        30.04R
ANTIGO         NOT AVBL
TOMAHAWK       NOT AVBL
MERRILL        NOT AVBL
$$

WIZ013-073-011500-
NORTHEAST WISCONSIN

CITY           SKY/WX    TMP DP  RH WIND       PRES   REMARKS
IRON MOUNTAIN  SUNNY     55  44  66 N8        29.99R
MARINETTE      CLOUDY    52  43  71 N7        29.98S
OCONTO         CLOUDY    50  47  90 N9        29.99R
$$

WIZ017-030-035>037-045-011500-
CENTRAL WISCONSIN

CITY           SKY/WX    TMP DP  RH WIND       PRES   REMARKS
MEDFORD        NOT AVBL
WAUSAU         SUNNY     57  44  62 N7        30.01R
MOSINEE        SUNNY     55  46  71 N5        30.02S
MARSHFIELD     SUNNY     58  43  57 NE8       30.02S
WISC RAPIDS    SUNNY     59  44  57 N9        30.02S
STEVENS POINT  NOT AVBL
WAUPACA        NOT AVBL
SHAWANO        NOT AVBL
CLINTONVILLE   NOT AVBL
$$

WIZ038-039-048-051-011500-
FOX VALLEY

CITY           SKY/WX    TMP DP  RH WIND       PRES   REMARKS
NWS GREEN BAY  MOSUNNY   56  47  71 NE7       29.99R
APPLETON       MOSUNNY   54  45  71 N9        29.99S
OSHKOSH        SUNNY     57  46  66 NW6       29.98S
FOND DU LAC    MOSUNNY   59  48  67 NW7       29.99R
$$

WIZ022-050-052-011500-
EAST CENTRAL WISCONSIN

CITY           SKY/WX    TMP DP  RH WIND       PRES   REMARKS
STURGEON BAY   CLOUDY    52  46  82 N12       30.00R
MANITOWOC      NOT AVBL
SHEBOYGAN      CLOUDY    57  49  74 W6        29.97S
$$

LMZ563-521-522-541>543-011500-
LAKESHORE

STATION/POSITION TIME  TEMP    WIND        PRES    VSBY  WAVE
                       AIR SEA DIR/SP/G                  HT/PER
                 (UTC) (F)     (DEG/KT/KT) (MB)    (MI)  (FT/S)
SHEBOYGAN LKSHOR 1300   54     290/  4/  6 1014.8R
KEWAUNEE LKSHORE 1300   53     340/  6/ 10 1013.9R
ALGOMA MARINA    1310          340/  9/ 12   N/A
NORTHPORT PIER   1300   52     340/ 16/ 20 1014.9R
N MID LAKE BUOY  1250   45 40  330/ 10/ 12 1014.2R         2/ 4
CHAMBERS ISLAND  1300   51     330/ 11/ 16 1015.2R
MENOMINEE LKSHOR 1300   50     320/  8/ 13 1015.9R
$$


USA.gov is the U.S. government's official web portal to all federal, state and local government web resources and services.